Weather History for KELP - October, 2012

Change the Weather History Date:

Monday, October 8, 2012

  Actual Average Record
Temperature  
Mean Temperature 67 °F 68 °F  
Max Temperature 84 °F 81 °F 95 °F (1979)
Min Temperature 49 °F 55 °F 35 °F (1976)
Degree Days  
Heating Degree Days 0 1  
Month to date heating degree days 3 7  
Since 1 July heating degree days 9 11  
Cooling Degree Days 2 4  
Month to date cooling degree days 60 40  
Year to date cooling degree days 2772 2286  
Growing Degree Days 15 (Base 50)    
Moisture  
Dew Point 38 °F    
Average Humidity 41    
Maximum Humidity 66    
Minimum Humidity 15    
Precipitation  
Precipitation 0.00 in 0.01 in 1.75 in (1945)
Month to date precipitation 0.00 0.18  
Year to date precipitation 5.83 8.01  
Snow  
Snow 0.00 in - - ()
Month to date snowfall 0.0  
Since 1 July snowfall 0.0  
Since 1 September snowfall 0.0  
Snow Depth 0.00 in    
Sea Level Pressure  
Sea Level Pressure 29.92 in    
Wind  
Wind Speed 5 mph (South)    
Max Wind Speed 17 mph    
Max Gust Speed 22 mph    
Visibility 10 miles    
Events      
T = Trace of Precipitation, MM = Missing Value Source: NWS Daily Summary

Daily Weather History Graph

Daily Weather History Graph

Search for Another Location

Airport or City:

Trip Planner

Search our weather history database for the weather conditions in past years. The results will help you decide how hot, cold, wet, or windy it might be!

Date:

Astronomy

Oct. 08, 2012 Rise Set
Actual Time 7:04 AM MDT 6:40 PM MDT
Civil Twilight 6:39 AM MDT 7:05 PM MDT
Nautical Twilight 6:11 AM MDT 7:33 PM MDT
Astronomical Twilight 5:43 AM MDT 8:01 PM MDT
Moon 12:10 AM MDT (10/8) 2:10 PM MDT (10/8)
Length of Visible Light 12h 25m
Length of Day
11h 36m
Last Quarter, 46% of the Moon is Illuminated
Oct 8
Last Quarter
Oct 15
New
Oct 21
First Quarter
Oct 29
Full
Nov 6
Last Quarter

Hourly Weather History & Observations

Time (MDT) Temp. Dew Point Humidity Pressure Visibility Wind Dir Wind Speed Gust Speed Precip Events Conditions
12:51 AM 57.9 °F 39.9 °F 51% 29.96 in 10.0 mi Calm Calm - N/A   Clear
1:51 AM 57.2 °F 39.2 °F 51% 30.09 in 10.0 mi Calm Calm - N/A   Clear
2:51 AM 57.0 °F 39.9 °F 53% 29.94 in 10.0 mi Calm Calm - N/A   Clear
3:51 AM 55.9 °F 39.9 °F 55% 29.94 in 10.0 mi East 3.5 mph - N/A   Clear
4:51 AM 54.0 °F 39.9 °F 59% 29.95 in 10.0 mi Calm Calm - N/A   Clear
5:51 AM 50.0 °F 39.9 °F 68% 29.96 in 10.0 mi NE 3.5 mph - N/A   Clear
6:51 AM 50.0 °F 39.9 °F 68% 29.98 in 10.0 mi East 3.5 mph - N/A   Partly Cloudy
7:51 AM 51.1 °F 39.9 °F 66% 30.01 in 10.0 mi NNE 3.5 mph - N/A   Mostly Cloudy
8:51 AM 57.0 °F 39.9 °F 53% 30.02 in 10.0 mi Calm Calm - N/A   Mostly Cloudy
9:51 AM 62.1 °F 41.0 °F 46% 30.01 in 10.0 mi Calm Calm - N/A   Mostly Cloudy
10:51 AM 66.0 °F 42.1 °F 42% 30.00 in 10.0 mi East 4.6 mph - N/A   Scattered Clouds
11:51 AM 68.0 °F 43.0 °F 40% 29.97 in 10.0 mi SSE 5.8 mph - N/A   Scattered Clouds
12:51 PM 73.0 °F 43.0 °F 34% 29.93 in 10.0 mi SSW 5.8 mph - N/A   Scattered Clouds
1:51 PM 77.0 °F 41.0 °F 28% 29.89 in 10.0 mi Variable 6.9 mph - N/A   Scattered Clouds
2:51 PM 82.0 °F 39.0 °F 22% 29.83 in 10.0 mi WSW 9.2 mph - N/A   Scattered Clouds
3:51 PM 81.0 °F 39.0 °F 22% 29.82 in 10.0 mi SSW 4.6 mph - N/A   Scattered Clouds
4:51 PM 84.0 °F 32.0 °F 15% 29.81 in 10.0 mi WSW 16.1 mph 21.9 mph N/A   Scattered Clouds
5:51 PM 82.4 °F 30.2 °F 15% 29.98 in 10.0 mi West 9.2 mph - N/A   Partly Cloudy
6:51 PM 80.1 °F 30.9 °F 17% 29.83 in 10.0 mi WSW 5.8 mph - N/A   Partly Cloudy
7:51 PM 75.0 °F 34.0 °F 22% 29.85 in 10.0 mi SSE 4.6 mph - N/A   Partly Cloudy
8:51 PM 72.0 °F 35.1 °F 26% 29.84 in 10.0 mi South 6.9 mph - N/A   Partly Cloudy
9:51 PM 69.1 °F 35.1 °F 29% 29.85 in 10.0 mi South 6.9 mph - N/A   Partly Cloudy
10:51 PM 66.9 °F 36.0 °F 32% 29.86 in 10.0 mi Calm Calm - N/A   Partly Cloudy
11:51 PM 66.9 °F 35.1 °F 31% 29.85 in 10.0 mi South 6.9 mph - N/A   Partly Cloudy